Date String (YYYY-MM-DD hh:mm:ss) UTC,Instrument flags,absolute air pressure of the measurement (hPa),sample flow rate (lpm),inlet stack bypass flow (lpm),air temperature of the measurement (°C),ambient temperature measured by the external sensor (°C),aerosol sample conditioner tube jacket temperature (°C),OPC LED temperature (°C),internal box temperature (°C),relative humidity of the measurement (%),span deviation,mass concentration of particles derived from Lorenz-Mie calculation of OPC scattering (μg/m³),mass concentration of particles derived from Lorenz-Mie calculation of OPC scattering (μg/m³),mass concentration of particles derived from Lorenz-Mie calculation of OPC scattering (μg/m³)
DateTimeUTC,F1_M11,P_M11,Q1_M11,Q2_M11,T1_M11,T2_M11,T3_M11,T4_M11,T5_M11,U1_M11,ZSPAN_M11,X0_M11,X2_M11,X1_M11
2024-01-05 12:00:00,SystemResetWarning,0823.9,4.99,000.00,018.7,018.0,000.0,027.1,020.0,17.0,0001.0,0009.29,0006.69,0006.42
2024-01-05 12:01:00,SystemResetWarning,0823.9,5.00,000.00,018.7,018.0,000.0,027.1,020.0,16.9,0000.9,0009.28,0006.68,0006.39
2024-01-05 12:02:00,SystemResetWarning,0823.8,5.00,000.00,018.7,018.0,000.0,027.1,020.0,16.9,0001.6,0009.25,0006.66,0006.37
2024-01-05 12:03:00,SystemResetWarning,0823.8,5.00,000.00,018.7,018.0,000.0,027.1,020.0,16.9,0001.8,0009.29,0006.66,0006.36
2024-01-05 12:04:00,SystemResetWarning,0823.8,5.01,000.00,018.7,018.0,000.0,027.1,020.0,16.9,0002.0,0009.30,0006.65,0006.33
2024-01-05 12:05:00,SystemResetWarning,0823.8,5.01,000.00,018.7,018.1,000.0,027.1,020.0,16.9,0002.1,0009.18,0006.60,0006.30
2024-01-05 12:06:00,SystemResetWarning,0823.8,5.01,000.00,018.7,018.0,000.0,027.1,020.0,16.8,0002.3,0009.14,0006.58,0006.29
2024-01-05 12:07:00,SystemResetWarning,0823.8,5.00,000.00,018.7,018.1,000.0,027.1,020.0,16.8,0002.3,0009.24,0006.61,0006.30
2024-01-05 12:08:00,SystemResetWarning,0823.8,4.99,000.00,018.7,018.0,000.0,027.1,020.0,16.8,0002.5,0009.34,0006.64,0006.31
2024-01-05 12:09:00,SystemResetWarning,0823.8,4.99,000.00,018.7,018.0,000.0,027.1,020.0,16.7,0002.5,0009.39,0006.66,0006.32
2024-01-05 12:10:00,SystemResetWarning,0823.9,5.00,000.00,018.7,018.0,000.0,027.1,020.0,16.7,0002.5,0009.55,0006.70,0006.35
2024-01-05 12:11:00,SystemResetWarning,0823.9,5.01,000.00,018.7,018.0,000.0,027.1,020.0,16.7,0002.3,0009.61,0006.73,0006.36
2024-01-05 12:12:00,SystemResetWarning,0823.9,5.00,000.00,018.7,018.0,000.0,027.1,020.0,16.6,0002.5,0009.70,0006.79,0006.38
2024-01-05 12:13:00,SystemResetWarning,0823.9,5.00,000.00,018.7,018.0,000.0,027.1,020.0,16.6,0002.3,0009.65,0006.77,0006.38
2024-01-05 12:14:00,SystemResetWarning,0824.0,5.00,000.00,018.7,018.0,000.0,027.1,020.0,16.6,0002.2,0009.70,0006.80,0006.39
2024-01-05 12:15:00,SystemResetWarning,0824.0,5.00,000.00,018.7,018.0,000.0,027.1,020.0,16.6,0001.9,0009.77,0006.84,0006.42
2024-01-05 12:16:00,SystemResetWarning,0824.0,4.99,000.00,018.7,018.0,000.0,027.1,020.0,16.6,0001.9,0010.13,0006.89,0006.46
2024-01-05 12:17:00,SystemResetWarning,0824.0,5.00,000.00,018.7,018.0,000.0,027.1,020.0,16.6,0002.0,0010.25,0006.94,0006.49
2024-01-05 12:18:00,SystemResetWarning,0824.0,5.00,000.00,018.7,018.0,000.0,027.1,020.0,16.7,0001.7,0010.27,0006.95,0006.50
2024-01-05 12:19:00,SystemResetWarning,0824.0,5.00,000.00,018.7,017.9,000.0,027.2,020.0,16.7,0001.6,0010.33,0006.97,0006.52
2024-01-05 12:20:00,SystemResetWarning,0824.0,4.99,000.00,018.7,017.9,000.0,027.2,020.0,16.7,0001.4,0010.64,0006.99,0006.52
2024-01-05 12:21:00,SystemResetWarning,0823.9,5.00,000.00,018.7,017.9,000.0,027.2,020.0,16.8,0001.4,0010.50,0006.95,0006.50
2024-01-05 12:22:00,SystemResetWarning,0824.0,5.00,000.00,018.7,017.9,000.0,027.2,020.0,16.8,0001.4,0010.47,0006.91,0006.49
2024-01-05 12:23:00,SystemResetWarning,0824.0,5.00,000.00,018.7,017.9,000.0,027.2,020.0,16.8,0001.6,0010.54,0006.85,0006.48
2024-01-05 12:24:00,SystemResetWarning,0824.0,5.00,000.00,018.7,017.9,000.0,027.2,020.0,16.9,0001.8,0010.58,0006.88,0006.51
2024-01-05 12:25:00,SystemResetWarning,0824.0,5.01,000.00,018.7,017.8,000.0,027.2,020.0,16.9,0002.0,0010.59,0006.90,0006.53
2024-01-05 12:26:00,SystemResetWarning,0824.0,5.02,000.00,018.7,017.8,000.0,027.2,020.0,16.9,0002.1,0010.55,0006.89,0006.55
2024-01-05 12:27:00,SystemResetWarning,0824.0,5.00,000.00,018.7,017.8,000.0,027.1,020.0,17.0,0001.9,0010.30,0006.89,0006.56
2024-01-05 12:28:00,SystemResetWarning,0824.0,5.00,000.00,018.7,017.8,000.0,027.1,020.0,17.0,0002.1,0010.50,0006.93,0006.58
2024-01-05 12:29:00,SystemResetWarning,0824.0,5.00,000.00,018.7,017.8,000.0,027.1,020.0,17.1,0002.3,0010.57,0006.97,0006.62
2024-01-05 12:30:00,SystemResetWarning,0824.0,5.00,000.00,018.7,017.8,000.0,027.1,020.0,17.1,0002.4,0010.59,0006.98,0006.63
2024-01-05 12:31:00,SystemResetWarning,0823.9,5.00,000.00,018.7,017.7,000.0,027.1,020.0,17.1,0002.6,0010.27,0006.98,0006.66
2024-01-05 12:32:00,SystemResetWarning,0824.0,5.00,000.00,018.7,017.7,000.0,027.1,020.0,17.1,0002.7,0010.25,0007.00,0006.68
2024-01-05 12:33:00,SystemResetWarning,0824.0,5.00,000.00,018.7,017.7,000.0,027.1,020.0,17.1,0002.7,0010.41,0007.08,0006.70
2024-01-05 12:34:00,SystemResetWarning,0824.0,5.00,000.00,018.7,017.7,000.0,027.1,020.0,17.1,0002.6,0010.31,0007.14,0006.72
2024-01-05 12:35:00,SystemResetWarning,0823.9,5.01,000.00,018.7,017.7,000.0,027.1,020.0,17.0,0002.4,0010.32,0007.15,0006.72
2024-01-05 12:36:00,SystemResetWarning,0823.9,5.00,000.00,018.7,017.7,000.0,027.2,020.0,17.0,0002.2,0010.29,0007.12,0006.69
2024-01-05 12:37:00,SystemResetWarning,0823.9,5.01,000.00,018.7,017.6,000.0,027.1,020.0,17.0,0002.2,0010.19,0007.07,0006.66
2024-01-05 12:38:00,SystemResetWarning,0824.0,5.01,000.00,018.7,017.6,000.0,027.2,020.0,17.0,0002.3,0010.87,0007.07,0006.62
2024-01-05 12:39:00,SystemResetWarning,0824.0,5.00,000.00,018.7,017.6,000.0,027.1,020.0,17.0,0002.3,0011.15,0007.06,0006.58
2024-01-05 12:40:00,SystemResetWarning,0824.0,5.00,000.00,018.7,017.6,000.0,027.1,020.0,17.0,0002.3,0011.15,0006.98,0006.52
2024-01-05 12:41:00,SystemResetWarning,0824.0,4.99,000.00,018.7,017.6,000.0,027.2,020.0,17.1,0002.2,0011.09,0006.92,0006.47
2024-01-05 12:42:00,SystemResetWarning,0824.0,5.00,000.00,018.7,017.5,000.0,027.2,020.0,17.1,0002.4,0011.02,0006.87,0006.41
2024-01-05 12:43:00,SystemResetWarning,0824.0,5.00,000.00,018.7,017.5,000.0,027.2,020.0,17.1,0002.5,0010.98,0006.81,0006.35
2024-01-05 12:44:00,SystemResetWarning,0824.0,5.01,000.00,018.7,017.5,000.0,027.2,020.0,17.2,0002.5,0010.87,0006.73,0006.29
2024-01-05 12:45:00,SystemResetWarning,0824.0,5.01,000.00,018.7,017.5,000.0,027.2,020.0,17.2,0002.6,0010.70,0006.63,0006.21
2024-01-05 12:46:00,SystemResetWarning,0824.0,5.00,000.00,018.7,017.5,000.0,027.2,020.0,17.2,0002.6,0010.53,0006.52,0006.13
2024-01-05 12:47:00,SystemResetWarning,0824.0,4.99,000.00,018.7,017.5,000.0,027.2,020.0,17.2,0002.5,0010.51,0006.47,0006.06
2024-01-05 12:48:00,SystemResetWarning,0823.9,4.99,000.00,018.7,017.4,000.0,027.2,020.0,17.2,0002.5,0010.46,0006.40,0006.00
2024-01-05 12:49:00,SystemResetWarning,0823.9,5.00,000.00,018.7,017.4,000.0,027.2,020.0,17.2,0002.6,0010.17,0006.31,0005.93
2024-01-05 12:50:00,SystemResetWarning,0823.9,5.01,000.00,018.7,017.4,000.0,027.2,020.0,17.2,0002.5,0009.35,0006.20,0005.87
2024-01-05 12:51:00,SystemResetWarning,0823.9,5.00,000.00,018.7,017.4,000.0,027.1,020.0,17.3,0002.2,0009.26,0006.13,0005.83
2024-01-05 12:52:00,SystemResetWarning,0823.9,5.01,000.00,018.7,017.5,000.0,027.1,020.3,17.3,0002.1,0009.31,0006.09,0005.77
2024-01-05 12:53:00,SystemResetWarning,0823.9,5.00,000.00,018.8,018.2,000.0,027.1,020.6,17.3,0001.6,0009.45,0006.02,0005.72
2024-01-05 12:54:00,SystemResetWarning,0823.9,5.00,000.00,018.9,018.9,000.0,027.1,020.8,17.2,0001.1,0009.43,0005.98,0005.69
2024-01-05 12:55:00,SystemResetWarning,0823.9,4.99,000.00,019.0,018.9,000.0,027.1,020.6,17.1,0000.8,0009.42,0005.95,0005.66
2024-01-05 12:56:00,SystemResetWarning,0823.9,4.99,000.00,019.0,018.8,000.0,027.2,020.4,17.2,0000.4,0009.50,0005.92,0005.63
2024-01-05 12:57:00,SystemResetWarning,0823.8,5.00,000.00,019.0,018.7,000.0,027.2,020.3,17.2,0000.2,0009.88,0005.88,0005.61
2024-01-05 12:58:00,SystemResetWarning,0823.8,5.00,000.00,019.0,018.6,000.0,027.2,020.2,17.2,0000.3,0009.78,0005.83,0005.58
2024-01-05 12:59:00,SystemResetWarning,0823.8,5.00,000.00,018.9,018.4,000.0,027.2,020.1,17.2,0000.4,0009.77,0005.81,0005.55
